Location: Unspecified
(49.8670°N, 0.0000°E)
Time: 14:14:37
(UTC+00:00)

Courier 1B - Pass Details

Date: 19 June 2019
Orbit: 963 x 1209 km, 28.3° (Epoch: 17 July)

Event Time Altitude Azimuth Distance (km) Brightness Sun altitude
Rises 21:08:49 0° 229° (SW) 3,999 10.7 -7.3°
Reaches altitude 10° 21:13:19 10° 205° (SSW) 3,083 9.9 -7.8°
Maximum altitude 21:16:47 14° 178° (S) 2,839 9.5 -8.1°
Drops below altitude 10° 21:20:17 10° 151° (SSE) 3,128 9.5 -8.5°
Enters shadow 21:20:27 10° 150° (SSE) 3,153 9.5 -8.5°
